Elefsis, Greece

12:49 AM EEST on August 18, 2017 (GMT +0300)
Elefsis Air Base

Weather History for LGEL - January, 2013

Change the Weather History Date:

Tuesday, January 22, 2013

  Actual Average Record
Temperature  
Mean Temperature 53 °F -  
Max Temperature 62 °F 55 °F 68 °F (2007)
Min Temperature 44 °F 39 °F 33 °F (2012)
Degree Days  
Heating Degree Days 12    
Growing Degree Days 3 (Base 50)    
Moisture  
Dew Point 46 °F    
Average Humidity 76    
Maximum Humidity 94    
Minimum Humidity 52    
Precipitation  
Precipitation 0.00 in - - ()
Sea Level Pressure  
Sea Level Pressure 29.75 in    
Wind  
Wind Speed 2 mph ()    
Max Wind Speed 6 mph    
Max Gust Speed -    
Visibility 6.2 miles    
Events Rain    
Averages and records for this station are not official NWS values.
T = Trace of Precipitation, MM = Missing Value Source: Averaged Metar Reports

Daily Weather History Graph

Daily Weather History Graph

Search for Another Location

Airport or City:

Trip Planner

Search our weather history database for the weather conditions in past years. The results will help you decide how hot, cold, wet, or windy it might be!

Date:

Astronomy

Jan. 22, 2013 Rise Set
Actual Time 7:37 AM EET 5:37 PM EET
Civil Twilight 7:09 AM EET 6:06 PM EET
Nautical Twilight 6:37 AM EET 6:38 PM EET
Astronomical Twilight 6:05 AM EET 7:09 PM EET
Moon 1:47 PM EET (1/22) 3:42 AM EET (1/22)
Length of Visible Light 10h 56m
Length of Day
10h 00m
Waxing Gibbous, 80% of the Moon is Illuminated
Jan 22
Waxing Gibbous
Jan 27
Full
Feb 3
Last Quarter
Feb 10
New
Feb 17
First Quarter

Hourly Weather History & Observations

Time (EET) Temp. Windchill Dew Point Humidity Pressure Visibility Wind Dir Wind Speed Gust Speed Precip Events Conditions
12:50 AM 50.0 °F - 48.2 °F 94% 29.68 in 6.2 mi NNW 3.5 mph - N/A   Partly Cloudy
1:50 AM 48.2 °F - 46.4 °F 93% 29.68 in - Calm Calm - N/A   Clear
2:50 AM 46.4 °F 45.2 °F 44.6 °F 93% 29.68 in - North 3.5 mph - N/A   Clear
3:50 AM 46.4 °F 44.3 °F 44.6 °F 93% 29.71 in - NNW 4.6 mph - N/A   Clear
4:50 AM 46.4 °F 44.3 °F 44.6 °F 93% 29.68 in 6.2 mi NNW 4.6 mph - N/A   Partly Cloudy
5:20 AM 46.4 °F 44.3 °F 42.8 °F 87% 29.71 in 6.2 mi NW 4.6 mph - N/A   Partly Cloudy
5:50 AM 44.6 °F 42.2 °F 42.8 °F 93% 29.71 in 6.2 mi NNW 4.6 mph - N/A   Partly Cloudy
6:20 AM 44.6 °F 42.2 °F 42.8 °F 93% 29.71 in 6.2 mi NNW 4.6 mph - N/A   Partly Cloudy
6:50 AM 46.4 °F 44.3 °F 42.8 °F 87% 29.71 in 6.2 mi NNW 4.6 mph - N/A   Partly Cloudy
7:20 AM 44.6 °F - 42.8 °F 93% 29.74 in 6.2 mi Calm Calm - N/A   Partly Cloudy
7:50 AM 46.4 °F - 42.8 °F 87% 29.74 in 6.2 mi Calm Calm - N/A   Partly Cloudy
8:20 AM 46.4 °F 44.3 °F 42.8 °F 87% 29.74 in 6.2 mi NNW 4.6 mph - N/A   Partly Cloudy
8:50 AM 50.0 °F - 46.4 °F 87% 29.77 in 6.2 mi Calm Calm - N/A   Scattered Clouds
9:20 AM 50.0 °F - 48.2 °F 94% 29.77 in 6.2 mi Calm Calm - N/A   Scattered Clouds
9:50 AM 53.6 °F - 48.2 °F 82% 29.77 in 6.2 mi Calm Calm - N/A   Scattered Clouds
10:20 AM 57.2 °F - 50.0 °F 77% 29.80 in 6.2 mi Calm Calm - N/A   Scattered Clouds
10:50 AM 59.0 °F - 50.0 °F 72% 29.80 in 6.2 mi South 4.6 mph - N/A   Scattered Clouds
11:20 AM 60.8 °F - 50.0 °F 68% 29.77 in 6.2 mi South 4.6 mph - N/A   Scattered Clouds
11:50 AM 60.8 °F - 48.2 °F 63% 29.77 in 6.2 mi South 4.6 mph - N/A   Scattered Clouds
12:20 PM 60.8 °F - 46.4 °F 59% 29.77 in 6.2 mi Calm Calm - N/A   Scattered Clouds
12:50 PM 62.6 °F - 44.6 °F 52% 29.77 in 6.2 mi Calm Calm - N/A   Scattered Clouds
1:20 PM 62.6 °F - 44.6 °F 52% 29.74 in 6.2 mi Calm Calm - N/A   Scattered Clouds
1:50 PM 62.6 °F - 46.4 °F 55% 29.74 in 6.2 mi South 5.8 mph - N/A   Scattered Clouds
2:20 PM 60.8 °F - 46.4 °F 59% 29.74 in 6.2 mi South 4.6 mph - N/A   Scattered Clouds
2:50 PM 62.6 °F - 44.6 °F 52% 29.74 in 6.2 mi SSE 4.6 mph - N/A   Scattered Clouds
3:20 PM 62.6 °F - 46.4 °F 55% 29.74 in 6.2 mi SSE 5.8 mph - N/A   Scattered Clouds
3:50 PM 60.8 °F - 46.4 °F 59% 29.74 in 6.2 mi SSE 4.6 mph - N/A   Scattered Clouds
4:20 PM 60.8 °F - 48.2 °F 63% 29.74 in 6.2 mi Calm Calm - N/A   Scattered Clouds
4:50 PM 60.8 °F - 46.4 °F 59% 29.74 in 6.2 mi Calm Calm - N/A   Scattered Clouds
5:20 PM 59.0 °F - 46.4 °F 63% 29.74 in 6.2 mi Calm Calm - N/A   Scattered Clouds
5:50 PM 57.2 °F - 46.4 °F 67% 29.74 in 6.2 mi Calm Calm - N/A   Partly Cloudy
6:20 PM 55.4 °F - 46.4 °F 72% 29.74 in 6.2 mi Calm Calm - N/A   Partly Cloudy
6:50 PM 55.4 °F - 48.2 °F 77% 29.77 in 6.2 mi Calm Calm - N/A   Scattered Clouds
7:20 PM 55.4 °F - 48.2 °F 77% 29.77 in 6.2 mi Calm Calm - N/A   Scattered Clouds
7:50 PM 53.6 °F - 48.2 °F 82% 29.77 in 6.2 mi Calm Calm - N/A   Scattered Clouds
8:20 PM 53.6 °F - 46.4 °F 77% 29.77 in 6.2 mi Calm Calm - N/A   Scattered Clouds
8:50 PM 55.4 °F - 46.4 °F 72% 29.77 in 6.2 mi Calm Calm - N/A   Partly Cloudy
9:20 PM 53.6 °F - 44.6 °F 72% 29.77 in 6.2 mi Calm Calm - N/A   Partly Cloudy
9:50 PM 53.6 °F - 46.4 °F 77% 29.80 in 6.2 mi Calm Calm - N/A   Mostly Cloudy
10:20 PM 53.6 °F - 46.4 °F 77% 29.80 in 6.2 mi Calm Calm - N/A   Mostly Cloudy
10:50 PM 53.6 °F - 46.4 °F 77% 29.80 in 6.2 mi Calm Calm - N/A   Mostly Cloudy
11:50 PM 51.8 °F - 48.2 °F 88% 29.83 in 6.2 mi Calm Calm - N/A Rain Light Rain